Tracking 18843 objects as of 20-November-2017
HD Live streaming from Space Station
objects crossing your sky now

FLOCK 3P 3

Track FLOCK 3P 3 now!
10-day predictions
FLOCK 3P 3 is classified as:


NORAD ID: 41968
Int'l Code: 2017-008W
Perigee: 496.5 km
Apogee: 508.5 km
Inclination: 97.5 °
Period: 94.5 minutes
Semi major axis: 6873 km
RCS: Unknown
Launch date: February 15, 2017
Source: United States (US)
Launch site: SRIHARIKOTA (SRI)
aabbcc
Your satellite tracking list
Your tracking list is empty




NASA's NSSDC Master Catalog

Two Line Element Set (TLE):
1 41968U 17008W   17323.70429736 +.00003761 +00000-0 +16061-3 0  9992
2 41968 097.4779 024.5215 0008758 018.0592 342.0954 15.23478296042128
Source of the keplerian elements: AFSPC